[[{"header":{"parameterUnit":"m.s-1","parameterCategory":2,"la1":30.2991,"la2":30.254,"lo1":-89.0895,"lo2":-89.0444,"dy":0.0017,"dx":0.0017,"nx":28,"ny":28,"refTime":"2023-10-21T21:00:00:Z","depth":"0","parameterNumber":2,"parameterNumberName":"U-component_of_CURRENTS"},"data":[0,0,0,0,0,0,0,0,0,0,0,0,0,0,0,0,0,0,0,0,0,0,0,0,0,0,0,0,0,0,0,0,0,0,0,0,0,0,0,0,0,0,0,0,0,0,0,0,0,0,0,0,0,0,0,0,0,0,-0.2642,-0.2643,0,-0.2676,-0.2676,-0.2676,-0.2639,-0.2638,-0.2637,-0.2636,-0.2588,-0.2588,-0.2588,0,0,0,0,0,0,0,0,0,0,0,0,0,-0.2515,-0.2517,-0.2642,-0.2643,-0.2644,-0.2676,-0.2676,-0.2676,-0.2639,-0.2638,-0.2637,-0.2635,-0.2588,-0.2588,-0.2588,0,0,0,0,0,0,0,0,0,0,0,0,0,-0.2559,-0.2518,-0.2642,-0.2631,-0.263,-0.2676,-0.2676,-0.2676,-0.264,-0.2638,-0.2636,-0.2634,-0.2588,-0.2588,-0.2588,-0.2623,0,0,-0.2587,-0.2587,0,0,0,0,0,0,0,0,-0.2557,-0.2564,-0.2632,-0.2632,-0.2631,-0.2653,-0.2614,-0.2655,-0.264,-0.2634,-0.2636,-0.2634,-0.2605,-0.2603,-0.2612,-0.262,-0.2618,-0.2587,-0.2587,-0.2587,-0.2587,0,0,0,0,0,0,0,-0.2554,-0.2562,-0.2653,-0.2633,-0.2632,-0.2613,-0.2617,-0.2621,-0.2626,-0.2634,-0.2632,-0.264,-0.2604,-0.2612,-0.261,-0.2618,-0.2587,-0.2587,-0.2587,-0.2587,-0.2618,-0.2619,0,0,0,0,0,0,-0.2559,-0.256,-0.2652,-0.2655,-0.2591,-0.2617,-0.2622,-0.2646,-0.2628,-0.2624,-0.2642,-0.2638,-0.2613,-0.2611,-0.2608,-0.2627,-0.2587,-0.2587,-0.2586,-0.2617,-0.2618,-0.2619,0,0,0,0,0,0,-0.2556,-0.2567,-0.2651,-0.2608,-0.2618,-0.2622,-0.2649,-0.2648,-0.2651,-0.2635,-0.2629,-0.2644,-0.2612,-0.2609,-0.2609,-0.2625,-0.2586,-0.2586,-0.2616,-0.2617,-0.2619,-0.2677,0,0,0,0,0,0,-0.2553,-0.2567,-0.2584,-0.2609,-0.262,-0.2672,-0.2651,-0.265,-0.266,-0.2655,-0.2636,-0.263,-0.261,-0.261,-0.2609,-0.2624,-0.2586,-0.2615,-0.2617,-0.2618,-0.2674,-0.268,-0.2686,0,0,0,0,0,-0.2548,-0.2579,-0.2585,-0.2596,-0.2646,-0.2673,-0.2676,-0.267,-0.2662,-0.2665,-0.2654,-0.263,-0.262,-0.2611,-0.261,-0.2625,-0.2614,-0.2616,-0.2618,-0.2671,-0.2679,-0.2686,0,0,0,0,0,0,-0.2529,-0.258,-0.2586,-0.263,-0.2647,-0.2667,-0.2677,-0.2677,-0.2676,-0.2669,-0.2647,-0.2642,-0.2649,-0.2632,-0.2622,-0.2639,-0.2612,-0.2614,-0.2652,-0.266,-0.2666,-0.2666,-0.2586,0,0,0,0,0,-0.2538,-0.2576,-0.2608,-0.2642,-0.2654,-0.2668,-0.2679,-0.2677,-0.2683,-0.268,-0.2669,-0.2659,-0.2662,-0.2655,-0.2652,-0.2665,-0.2582,-0.2673,-0.2679,-0.2684,-0.2683,-0.2631,-0.2631,-0.2626,-0.2626,-0.2626,0,0,-0.2539,-0.2573,-0.2593,-0.264,-0.2655,-0.2679,-0.2669,-0.2689,-0.2704,-0.2676,-0.2688,-0.2682,-0.2671,-0.2683,-0.2684,-0.2667,-0.2618,-0.2686,-0.2691,-0.2688,-0.2633,-0.2633,-0.2633,-0.2628,-0.2628,-0.2627,0,0,-0.2561,-0.2592,-0.2629,-0.2647,-0.2677,-0.2688,-0.2695,-0.2716,-0.2718,-0.2737,-0.2722,-0.2732,-0.2726,-0.2729,-0.2729,-0.277,-0.2657,-0.2758,-0.2784,-0.2734,-0.2733,-0.2732,-0.252,-0.25,-0.2756,-0.2756,-0.2756,0,-0.2554,-0.2605,-0.2638,-0.2671,-0.2675,-0.2694,-0.2709,-0.2733,-0.2748,-0.2737,-0.2741,-0.2744,-0.2755,-0.2762,-0.2788,-0.2785,-0.2673,-0.2759,-0.274,-0.2738,-0.2736,-0.252,-0.2497,-0.2759,-0.2759,-0.2759,-0.2759,0,-0.2607,-0.2632,-0.2651,-0.2699,-0.2713,-0.2726,-0.2756,-0.2764,-0.2768,-0.2775,-0.278,-0.2803,-0.278,-0.2813,-0.2822,-0.2817,-0.2706,-0.2756,-0.2719,-0.2739,-0.2509,-0.2484,-0.2764,-0.2763,-0.2762,-0.2761,0,0,-0.2594,-0.2672,-0.267,-0.2629,-0.2715,-0.2678,-0.2754,-0.2761,-0.2698,-0.2787,-0.2716,-0.2832,-0.2812,-0.2813,-0.2822,-0.2825,-0.2713,-0.2789,-0.2785,-0.2568,-0.2454,-0.211,-0.2047,-0.2754,-0.2752,-0.2751,-0.2258,0,-0.2602,-0.2613,-0.2693,-0.2649,-0.2614,-0.2668,-0.2674,-0.2685,-0.2691,-0.2624,-0.2717,-0.2643,-0.2818,-0.2739,-0.2811,-0.2714,-0.2666,-0.2832,-0.2475,-0.2461,-0.2149,-0.2017,-0.185,-0.1377,-0.2233,-0.2229,-0.2226,0,-0.2611,-0.2584,-0.2558,-0.2488,-0.2479,-0.2463,-0.2378,-0.2393,-0.2398,-0.2392,-0.2447,-0.2455,-0.2481,-0.2596,-0.2535,-0.2617,-0.2548,-0.2509,-0.2489,-0.214,-0.2074,-0.1518,-0.1298,-0.1342,-0.2186,-0.2189,-0.2192,0,-0.2444,-0.2467,-0.2399,-0.2391,-0.2356,-0.2312,-0.2289,-0.2288,-0.2198,-0.2189,-0.2063,-0.2193,-0.2059,-0.2167,-0.2141,-0.2301,-0.1974,-0.2165,-0.1784,-0.1752,-0.1524,-0.1473,-0.1306,-0.2098,-0.21,-0.2101,-0.2102,0,-0.236,-0.2268,-0.2273,-0.219,-0.1995,-0.2078,-0.1881,-0.1891,-0.1838,-0.1664,-0.187,-0.1694,-0.1946,-0.1821,-0.1957,-0.1692,-0.1809,-0.1707,-0.1606,-0.1522,-0.148,-0.1442,-0.153,-0.2082,-0.2086,-0.209,-0.2093,0,-0.2086,-0.2178,-0.1995,-0.1925,-0.1888,-0.1693,-0.1565,-0.1421,-0.1423,-0.1194,-0.1152,-0.1176,-0.101,-0.1155,-0.1133,-0.1244,-0.109,-0.1044,-0.083,-0.0716,-0.0479,-0.0574,-0.0285,-0.0295,-0.0558,-0.0546,-0.0536,0,-0.1907,-0.1802,-0.1679,-0.1558,-0.149,-0.1285,-0.1154,-0.1172,-0.1041,-0.0851,-0.0691,-0.0465,-0.0327,-0.0102,-0.0199,-0.0179,-0.0482,-0.0008,-0.0362,-0.0339,-0.0378,-0.0595,-0.0652,-0.0036,-0.0023,-0.0012,-0.0004,0,-0.143,-0.1423,-0.1282,-0.1088,-0.0927,-0.0749,-0.0592,-0.0462,-0.0461,-0.0304,-0.0063,0.007,0.0394,0.0509,0.0625,0.056,0.0009,0.0221,0.0121,-0.0005,-0.0112,-0.0112,-0.0397,0.009,0.0081,0.0074,0.0069,0.0065,-0.1,-0.0816,-0.0729,-0.0538,-0.0412,-0.0291,-0.0166,-0.0071,0.0102,0.0211,0.036,0.0533,0.0831,0.1022,0.1043,0.1146,0.0827,0.0945,0.0836,0.0619,0.0563,0.0609,0.1255,0.1252,0.125,0.1248,0.1246,0,-0.0447,-0.0389,-0.0195,-0.0066,0.0045,0.0005,0.015,0.0195,0.0321,0.0447,0.0584,0.089,0.121,0.1361,0.1597,0.1609,0.1352,0.1544,0.1136,0.1041,0.1032,0.1001,0.1771,0.1771,0.1771,0.1771,0.1771,0.1771,-0.0141,0.0091,0.0078,0.0293,0.0328,0.0429,0.0457,0.0489,0.0548,0.0652,0.0738,0.0811,0.1084,0.1548,0.1752,0.1761,0.1454,0.1604,0.1371,0.1222,0.1147,0.1075,0.1019,0.178,0.178,0.1314,0.1311,0.1308]},{"header":{"parameterUnit":"m.s-1","parameterCategory":2,"la1":30.2991,"la2":30.254,"lo1":-89.0895,"lo2":-89.0444,"dy":0.0017,"dx":0.0017,"nx":28,"ny":28,"refTime":"2023-10-21T21:00:00:Z","depth":"0","parameterNumber":3,"parameterNumberName":"V-component_of_CURRENTS"},"data":[0,0,0,0,0,0,0,0,0,0,0,0,0,0,0,0,0,0,0,0,0,0,0,0,0,0,0,0,0,0,0,0,0,0,0,0,0,0,0,0,0,0,0,0,0,0,0,0,0,0,0,0,0,0,0,0,0,0,-0.0891,-0.0891,0,-0.0909,-0.0909,-0.0909,-0.0897,-0.0897,-0.0896,-0.0896,-0.0854,-0.0853,-0.0852,0,0,0,0,0,0,0,0,0,0,0,0,0,-0.0799,-0.0801,-0.0891,-0.0891,-0.0892,-0.0909,-0.0909,-0.0909,-0.0897,-0.0897,-0.0896,-0.0896,-0.0854,-0.0853,-0.0852,0,0,0,0,0,0,0,0,0,0,0,0,0,-0.0828,-0.0802,-0.0891,-0.089,-0.089,-0.0909,-0.0909,-0.0909,-0.0897,-0.0897,-0.0896,-0.0896,-0.0855,-0.0853,-0.0852,-0.0855,0,0,-0.0849,-0.0848,0,0,0,0,0,0,0,0,-0.0827,-0.0832,-0.0889,-0.089,-0.089,-0.0902,-0.0861,-0.0889,-0.0897,-0.0892,-0.0896,-0.0895,-0.0866,-0.0864,-0.0866,-0.0853,-0.0851,-0.0848,-0.0848,-0.0847,-0.0847,0,0,0,0,0,0,0,-0.0825,-0.083,-0.0896,-0.089,-0.089,-0.0872,-0.0876,-0.0866,-0.0879,-0.0892,-0.0892,-0.0898,-0.0866,-0.0868,-0.0865,-0.0851,-0.0849,-0.0847,-0.0847,-0.0846,-0.0822,-0.0822,0,0,0,0,0,0,-0.0831,-0.0829,-0.0895,-0.0897,-0.0859,-0.0875,-0.0879,-0.0897,-0.088,-0.0879,-0.0898,-0.0897,-0.087,-0.0867,-0.0864,-0.0851,-0.0847,-0.0846,-0.0845,-0.0822,-0.0822,-0.0822,0,0,0,0,0,0,-0.0829,-0.0837,-0.0895,-0.0864,-0.087,-0.0877,-0.0898,-0.0898,-0.0898,-0.0886,-0.0882,-0.0899,-0.0869,-0.0865,-0.0856,-0.085,-0.0846,-0.0844,-0.0822,-0.0822,-0.0822,-0.0836,0,0,0,0,0,0,-0.0826,-0.0836,-0.0849,-0.0865,-0.0872,-0.0903,-0.0898,-0.0898,-0.0904,-0.0902,-0.0885,-0.0881,-0.0869,-0.0858,-0.0855,-0.0848,-0.0844,-0.0822,-0.0822,-0.0822,-0.0835,-0.0836,-0.0837,0,0,0,0,0,-0.0823,-0.0845,-0.085,-0.0858,-0.0891,-0.0903,-0.0905,-0.0906,-0.0904,-0.0904,-0.0895,-0.0881,-0.0856,-0.0857,-0.0853,-0.0846,-0.0822,-0.0822,-0.0822,-0.0835,-0.0836,-0.0837,0,0,0,0,0,0,-0.0811,-0.0847,-0.0852,-0.0884,-0.0891,-0.0902,-0.0907,-0.0908,-0.0903,-0.09,-0.0885,-0.0881,-0.087,-0.0859,-0.0861,-0.084,-0.0835,-0.0835,-0.0846,-0.0847,-0.0848,-0.0808,-0.0843,0,0,0,0,0,-0.0817,-0.0843,-0.0863,-0.0886,-0.0892,-0.0899,-0.0904,-0.0905,-0.0905,-0.0903,-0.0891,-0.0879,-0.087,-0.0859,-0.085,-0.084,-0.08,-0.0832,-0.0833,-0.0834,-0.0799,-0.0754,-0.0747,-0.0823,-0.0823,-0.0823,0,0,-0.0818,-0.0841,-0.0856,-0.0885,-0.0892,-0.089,-0.09,-0.091,-0.09,-0.0899,-0.0882,-0.0884,-0.087,-0.0859,-0.0852,-0.0847,-0.0795,-0.0834,-0.0835,-0.0799,-0.0753,-0.0745,-0.0738,-0.0823,-0.0823,-0.0823,0,0,-0.082,-0.0855,-0.0865,-0.087,-0.0884,-0.089,-0.0893,-0.0901,-0.0898,-0.0896,-0.0888,-0.0881,-0.0873,-0.0853,-0.0845,-0.0844,-0.0806,-0.085,-0.0816,-0.0774,-0.0766,-0.0759,-0.0709,-0.0698,-0.0846,-0.0846,-0.0846,0,-0.0815,-0.0824,-0.0867,-0.0865,-0.0848,-0.0887,-0.0861,-0.0882,-0.0882,-0.0858,-0.089,-0.0856,-0.0864,-0.082,-0.083,-0.0843,-0.0808,-0.0815,-0.0773,-0.0765,-0.0757,-0.0708,-0.0695,-0.0847,-0.0846,-0.0846,-0.0846,0,-0.0814,-0.0807,-0.0812,-0.0819,-0.0817,-0.0805,-0.0825,-0.0823,-0.0834,-0.0835,-0.0809,-0.083,-0.0787,-0.0817,-0.0828,-0.0776,-0.0766,-0.0785,-0.0766,-0.075,-0.07,-0.0686,-0.0848,-0.0847,-0.0847,-0.0847,0,0,-0.0818,-0.0806,-0.0804,-0.0748,-0.0775,-0.0749,-0.0758,-0.0732,-0.0681,-0.074,-0.0666,-0.0714,-0.0714,-0.0703,-0.0721,-0.0711,-0.0661,-0.0726,-0.0723,-0.0669,-0.0552,-0.0546,-0.053,-0.0673,-0.0671,-0.0669,-0.0542,0,-0.0781,-0.0723,-0.0748,-0.0667,-0.0614,-0.0637,-0.061,-0.0603,-0.0611,-0.0565,-0.0617,-0.0569,-0.0676,-0.0637,-0.0655,-0.065,-0.0622,-0.0692,-0.058,-0.0575,-0.0567,-0.0513,-0.043,-0.0309,-0.0528,-0.0525,-0.0524,0,-0.076,-0.0701,-0.0613,-0.0499,-0.048,-0.0458,-0.0365,-0.035,-0.0344,-0.034,-0.035,-0.038,-0.0384,-0.0469,-0.0468,-0.0507,-0.0513,-0.0533,-0.0528,-0.0497,-0.0543,-0.0359,-0.0275,-0.034,-0.0502,-0.0504,-0.0505,0,-0.0667,-0.0595,-0.0495,-0.0468,-0.0384,-0.0335,-0.0298,-0.0274,-0.021,-0.0188,-0.0133,-0.0177,-0.0152,-0.0208,-0.0306,-0.0356,-0.0294,-0.036,-0.0353,-0.0353,-0.0242,-0.0236,-0.0193,-0.0308,-0.0308,-0.0308,-0.0309,0,-0.0587,-0.0493,-0.0437,-0.0367,-0.0219,-0.0213,-0.0079,-0.0053,0.0004,0.0106,0.0002,0.008,-0.0083,-0.01,-0.0208,-0.0239,-0.0211,-0.0308,-0.0306,-0.0248,-0.0245,-0.0266,-0.0343,-0.0303,-0.0304,-0.0305,-0.0306,0,-0.0472,-0.0454,-0.0309,-0.0203,-0.0169,-0.0056,0.0057,0.0165,0.0185,0.0314,0.0337,0.0308,0.0275,0.0112,0.0051,-0.0069,-0.0153,-0.0128,-0.0056,-0.005,-0.0135,-0.0216,-0.0222,-0.0257,-0.0083,-0.0081,-0.0081,0,-0.0384,-0.031,-0.0183,-0.0093,-0.0039,0.0095,0.0199,0.0253,0.0352,0.0462,0.0549,0.055,0.0571,0.0446,0.0233,0.0084,-0.0054,0.0081,-0.0011,-0.0089,-0.0179,-0.0314,-0.0354,0.0133,0.0136,0.0138,0.014,0,-0.0185,-0.0177,-0.0067,0.0085,0.0206,0.0362,0.0491,0.058,0.0655,0.0743,0.0876,0.091,0.079,0.068,0.0445,0.0313,0.0022,0.012,0.0043,0.0012,-0.0128,-0.0177,-0.0013,0.0159,0.0157,0.0155,0.0154,0.0154,-0.0036,0.0059,0.0152,0.0302,0.0442,0.0611,0.0699,0.0814,0.0958,0.1059,0.1119,0.1181,0.1088,0.0769,0.0552,0.026,0.0151,0.02,0.0118,-0.0005,-0.007,0.0128,0.0278,0.0277,0.0276,0.0275,0.0274,0,0.0154,0.0231,0.0375,0.0536,0.0681,0.072,0.0891,0.0944,0.1061,0.1195,0.1285,0.142,0.1225,0.0952,0.0607,0.0354,0.0155,0.0201,0.0059,0.0024,0.0251,0.023,0.0373,0.0373,0.0373,0.0373,0.0373,0.0373,0.0263,0.0419,0.046,0.0709,0.0809,0.0954,0.1026,0.1095,0.1172,0.1346,0.1474,0.159,0.1541,0.0945,0.0483,0.0336,0.0082,-0.0,-0.0142,0.0047,0.004,0.0034,-0.0002,0.009,0.0089,-0.0324,-0.0327,-0.033]}],[{"header":{"parameterUnit":"m.s-1","parameterCategory":2,"la1":30.2991,"la2":30.254,"lo1":-89.0895,"lo2":-89.0444,"dy":0.0017,"dx":0.0017,"nx":28,"ny":28,"refTime":"2023-10-21T21:00:00:Z","depth":"2","parameterNumber":2,"parameterNumberName":"U-component_of_CURRENTS"},"data":[0,0,0,0,0,0,0,0,0,0,0,0,0,0,0,0,0,0,0,0,0,0,0,0,0,0,0,0,0,0,0,0,0,0,0,0,0,0,0,0,0,0,0,0,0,0,0,0,0,0,0,0,0,0,0,0,0,0,-0.061,-0.061,0,-0.0622,-0.0621,-0.0621,-0.0625,-0.0626,-0.0626,-0.0626,-0.0558,-0.0557,-0.0555,0,0,0,0,0,0,0,0,0,0,0,0,0,-0.0588,-0.0588,-0.061,-0.061,-0.061,-0.0622,-0.0621,-0.0621,-0.0625,-0.0626,-0.0626,-0.0626,-0.0559,-0.0557,-0.0554,0,0,0,0,0,0,0,0,0,0,0,0,0,-0.0596,-0.0588,-0.0609,-0.0615,-0.0616,-0.0622,-0.0621,-0.0621,-0.0625,-0.0626,-0.0626,-0.0626,-0.056,-0.0557,-0.0554,-0.0531,0,0,-0.0545,-0.0544,0,0,0,0,0,0,0,0,-0.0595,-0.0596,-0.0614,-0.0615,-0.0616,-0.0624,-0.0589,-0.0588,-0.0625,-0.0619,-0.0626,-0.0626,-0.0574,-0.057,-0.057,-0.0528,-0.0525,-0.0545,-0.0543,-0.0542,-0.0541,0,0,0,0,0,0,0,-0.0595,-0.0596,-0.0612,-0.0615,-0.0616,-0.0617,-0.0618,-0.0589,-0.0592,-0.062,-0.0621,-0.0626,-0.0574,-0.0573,-0.0568,-0.0524,-0.0545,-0.0542,-0.0541,-0.0539,-0.0455,-0.0455,0,0,0,0,0,0,-0.0598,-0.0595,-0.0611,-0.0612,-0.0609,-0.0617,-0.0619,-0.0619,-0.0594,-0.0592,-0.0626,-0.0626,-0.0578,-0.0571,-0.0565,-0.0539,-0.0542,-0.0539,-0.0537,-0.0456,-0.0455,-0.0455,0,0,0,0,0,0,-0.0598,-0.0599,-0.0611,-0.0606,-0.0608,-0.0618,-0.0619,-0.062,-0.0618,-0.06,-0.0596,-0.0624,-0.0577,-0.057,-0.0539,-0.0536,-0.0538,-0.0535,-0.0456,-0.0456,-0.0455,-0.0484,0,0,0,0,0,0,-0.0597,-0.0599,-0.0598,-0.0606,-0.0609,-0.0613,-0.0619,-0.062,-0.0622,-0.0623,-0.0596,-0.0591,-0.0577,-0.0543,-0.0536,-0.0532,-0.0533,-0.0457,-0.0456,-0.0455,-0.0483,-0.0484,-0.0485,0,0,0,0,0,-0.0596,-0.059,-0.0597,-0.0599,-0.0608,-0.0613,-0.0614,-0.062,-0.0622,-0.062,-0.0602,-0.0591,-0.0533,-0.0541,-0.0532,-0.0527,-0.0457,-0.0456,-0.0455,-0.0483,-0.0484,-0.0485,0,0,0,0,0,0,-0.0577,-0.059,-0.0598,-0.0596,-0.0606,-0.0615,-0.0614,-0.0618,-0.0604,-0.06,-0.0582,-0.0575,-0.0547,-0.0529,-0.0539,-0.05,-0.0494,-0.0491,-0.0518,-0.0519,-0.0519,-0.0517,-0.053,0,0,0,0,0,-0.0575,-0.0573,-0.059,-0.0587,-0.0594,-0.0604,-0.0607,-0.061,-0.0603,-0.0598,-0.0579,-0.0556,-0.0535,-0.0522,-0.0496,-0.0472,-0.0441,-0.0464,-0.0464,-0.0465,-0.0457,-0.0444,-0.0443,-0.0451,-0.0451,-0.0451,0,0,-0.0565,-0.0574,-0.0571,-0.0583,-0.0592,-0.0595,-0.0605,-0.0607,-0.0605,-0.059,-0.0569,-0.0552,-0.0528,-0.0505,-0.0491,-0.0492,-0.0435,-0.0464,-0.0465,-0.0456,-0.0443,-0.0442,-0.0442,-0.0451,-0.0451,-0.0451,0,0,-0.0545,-0.0557,-0.055,-0.0561,-0.0575,-0.0583,-0.0584,-0.059,-0.0589,-0.0569,-0.0562,-0.055,-0.0505,-0.0503,-0.0493,-0.0479,-0.0438,-0.0463,-0.0468,-0.0456,-0.0456,-0.0455,-0.037,-0.0361,-0.0468,-0.0468,-0.0468,0,-0.0539,-0.0535,-0.0549,-0.0551,-0.0562,-0.0578,-0.0579,-0.0578,-0.057,-0.0569,-0.056,-0.052,-0.0508,-0.0496,-0.0494,-0.0483,-0.0439,-0.0471,-0.0458,-0.0457,-0.0456,-0.0369,-0.036,-0.0469,-0.0469,-0.0469,-0.0468,0,-0.0517,-0.052,-0.0519,-0.0529,-0.0539,-0.0544,-0.0556,-0.0555,-0.0554,-0.0553,-0.0534,-0.052,-0.05,-0.0498,-0.0489,-0.0477,-0.0431,-0.0461,-0.0461,-0.0458,-0.0365,-0.0354,-0.0471,-0.047,-0.047,-0.047,0,0,-0.0504,-0.0504,-0.0506,-0.0511,-0.0533,-0.0537,-0.054,-0.0551,-0.0543,-0.0536,-0.0519,-0.0512,-0.0507,-0.0495,-0.049,-0.0482,-0.0432,-0.0464,-0.0463,-0.0384,-0.0338,-0.0308,-0.0292,-0.0461,-0.046,-0.046,-0.026,0,-0.0492,-0.048,-0.0491,-0.0493,-0.0497,-0.0522,-0.0522,-0.0531,-0.0526,-0.0506,-0.0511,-0.0485,-0.0505,-0.0488,-0.0489,-0.0446,-0.0411,-0.0478,-0.0347,-0.0341,-0.0323,-0.0284,-0.0336,-0.0165,-0.025,-0.0248,-0.0247,0,-0.048,-0.0476,-0.0468,-0.048,-0.0486,-0.0486,-0.0499,-0.0499,-0.0492,-0.0485,-0.0479,-0.0464,-0.0445,-0.0463,-0.0395,-0.0431,-0.0379,-0.0347,-0.034,-0.0298,-0.0294,-0.019,-0.0142,-0.0229,-0.0231,-0.0232,-0.0233,0,-0.0466,-0.0468,-0.0459,-0.0465,-0.0475,-0.048,-0.0487,-0.0491,-0.0493,-0.0464,-0.0448,-0.0426,-0.0396,-0.0362,-0.031,-0.034,-0.0209,-0.0249,-0.0159,-0.0153,-0.0164,-0.0162,-0.0189,-0.0189,-0.0189,-0.019,-0.0191,0,-0.0459,-0.0459,-0.0447,-0.0447,-0.0446,-0.0459,-0.0457,-0.0461,-0.0453,-0.0446,-0.0433,-0.041,-0.0374,-0.0308,-0.0268,-0.0165,-0.0177,-0.0131,-0.011,-0.0169,-0.0169,-0.0218,-0.0224,-0.0182,-0.0184,-0.0186,-0.0187,0,-0.0455,-0.0444,-0.0442,-0.044,-0.044,-0.0441,-0.0453,-0.0448,-0.044,-0.0422,-0.0412,-0.0372,-0.0282,-0.0217,-0.0122,-0.0097,-0.0015,0.0025,-0.0006,0.0006,0.004,0.0031,0.0166,0.0168,0.0171,0.0172,0.0174,0,-0.0455,-0.0447,-0.0436,-0.0432,-0.0433,-0.0434,-0.0437,-0.0443,-0.0447,-0.041,-0.0402,-0.03,-0.0247,-0.0069,0.0018,0.015,0.009,0.0162,0.0065,0.0065,0.0072,0.0059,0.0047,0.0075,0.0075,0.0076,0.0076,0,-0.0466,-0.0455,-0.0446,-0.0429,-0.0427,-0.0428,-0.0434,-0.044,-0.0442,-0.042,-0.0371,-0.0313,-0.0135,-0.0022,0.0145,0.0182,0.0129,0.0177,0.0181,-0.0026,-0.0011,-0.0008,-0.0018,0.008,0.008,0.008,0.0079,0.0079,-0.048,-0.047,-0.0445,-0.0431,-0.0422,-0.0416,-0.0413,-0.0419,-0.0414,-0.0364,-0.0335,-0.0221,-0.0144,0.0111,0.0163,0.023,0.0245,0.0201,0.0195,0.019,0.0124,0.0139,0.0253,0.0254,0.0254,0.0255,0.0255,0,-0.0493,-0.0465,-0.0449,-0.0426,-0.0403,-0.0401,-0.0405,-0.0392,-0.0372,-0.0292,-0.0225,-0.0129,-0.0031,0.0065,0.0195,0.0243,0.0189,0.0201,0.0107,0.0104,0.0101,0.0025,0.0132,0.0131,0.0131,0.0131,0,0,-0.0496,-0.0469,-0.0447,-0.0407,-0.0385,-0.0353,-0.0345,-0.032,-0.0263,-0.0173,-0.0081,-0.0013,0.0054,0.0094,0.0113,0.0152,0.0116,0.0132,0.0228,0.0113,0.011,0.0099,-0.002,0,0,0,0,0]},{"header":{"parameterUnit":"m.s-1","parameterCategory":2,"la1":30.2991,"la2":30.254,"lo1":-89.0895,"lo2":-89.0444,"dy":0.0017,"dx":0.0017,"nx":28,"ny":28,"refTime":"2023-10-21T21:00:00:Z","depth":"2","parameterNumber":3,"parameterNumberName":"V-component_of_CURRENTS"},"data":[0,0,0,0,0,0,0,0,0,0,0,0,0,0,0,0,0,0,0,0,0,0,0,0,0,0,0,0,0,0,0,0,0,0,0,0,0,0,0,0,0,0,0,0,0,0,0,0,0,0,0,0,0,0,0,0,0,0,-0.017,-0.0168,0,0.0002,0.0004,0.0006,0.0124,0.0125,0.0126,0.0127,0.0278,0.0281,0.0284,0,0,0,0,0,0,0,0,0,0,0,0,0,-0.0323,-0.0321,-0.017,-0.0168,-0.0166,0.0002,0.0004,0.0007,0.0124,0.0125,0.0126,0.0127,0.0276,0.028,0.0284,0,0,0,0,0,0,0,0,0,0,0,0,0,-0.0214,-0.0321,-0.017,-0.0087,-0.0078,0.0001,0.0004,0.0007,0.0124,0.0125,0.0126,0.0127,0.0275,0.028,0.0285,0.029,0,0,0.03,0.0302,0,0,0,0,0,0,0,0,-0.0221,-0.0209,-0.0101,-0.0093,-0.0082,0.0043,0.0006,0.0101,0.0123,0.0047,0.0127,0.0128,0.0196,0.0207,0.0238,0.0297,0.0303,0.03,0.0303,0.0305,0.0306,0,0,0,0,0,0,0,-0.0229,-0.0215,-0.0101,-0.0099,-0.0088,-0.0033,-0.0017,0.0025,0.0112,0.0054,0.0063,0.0081,0.0201,0.0233,0.0242,0.0305,0.03,0.0304,0.0307,0.0309,0.0432,0.0432,0,0,0,0,0,0,-0.0255,-0.0223,-0.0107,-0.0096,-0.015,-0.0032,-0.0014,0.0002,0.0113,0.0131,0.008,0.0086,0.0224,0.0236,0.0248,0.0296,0.0305,0.031,0.0312,0.0431,0.0432,0.0432,0,0,0,0,0,0,-0.026,-0.0247,-0.0114,-0.0156,-0.0135,-0.0031,-0.0015,0.0004,0.005,0.0133,0.0151,0.0108,0.0225,0.0241,0.0296,0.0301,0.0312,0.0316,0.0431,0.0431,0.0432,0.0369,0,0,0,0,0,0,-0.0265,-0.025,-0.0245,-0.0158,-0.0133,-0.0061,-0.0015,0.0007,0.0059,0.0069,0.0162,0.0177,0.0227,0.0288,0.03,0.0308,0.032,0.0431,0.0431,0.0432,0.037,0.0367,0.0364,0,0,0,0,0,-0.0271,-0.0266,-0.0246,-0.0231,-0.0132,-0.0061,-0.0043,0.0035,0.0058,0.008,0.014,0.0175,0.0301,0.0292,0.0307,0.0316,0.043,0.0431,0.0432,0.0372,0.0368,0.0364,0,0,0,0,0,0,-0.0321,-0.0251,-0.0227,-0.0199,-0.0136,-0.0041,-0.0012,0.0031,0.0097,0.0107,0.0178,0.0197,0.025,0.0288,0.0276,0.0354,0.0372,0.0375,0.0321,0.0318,0.0315,0.0285,0.0324,0,0,0,0,0,-0.0336,-0.0319,-0.024,-0.0218,-0.0189,-0.0106,-0.0067,-0.0016,0.0052,0.0084,0.0146,0.0209,0.0262,0.0293,0.0348,0.0383,0.0385,0.04,0.0397,0.0394,0.038,0.0381,0.0375,0.0435,0.0435,0.0435,0,0,-0.0351,-0.031,-0.0299,-0.0229,-0.0174,-0.0133,-0.0078,-0.0021,0.0012,0.0086,0.0145,0.0201,0.0269,0.0319,0.0345,0.0352,0.0378,0.0395,0.0391,0.038,0.0381,0.0374,0.0369,0.0435,0.0435,0.0435,0,0,-0.0369,-0.0334,-0.0323,-0.0276,-0.0201,-0.015,-0.0138,-0.0045,-0.0003,0.0056,0.0115,0.0167,0.0256,0.0302,0.0335,0.0344,0.0362,0.0368,0.0327,0.0328,0.0322,0.0317,0.0302,0.0296,0.0364,0.0364,0.0364,0,-0.0386,-0.0364,-0.0307,-0.0279,-0.0249,-0.0165,-0.0144,-0.0088,0.001,0.0026,0.0068,0.0179,0.0246,0.0284,0.0302,0.0335,0.033,0.0334,0.032,0.0315,0.0311,0.0297,0.0292,0.0361,0.0362,0.0362,0.0362,0,-0.039,-0.0371,-0.0358,-0.0305,-0.0266,-0.0232,-0.0158,-0.0118,-0.0064,-0.0014,0.0041,0.0129,0.0191,0.0226,0.0275,0.0283,0.0285,0.0314,0.032,0.0301,0.0288,0.0283,0.0357,0.0358,0.0359,0.036,0,0,-0.0426,-0.0375,-0.0369,-0.0358,-0.0281,-0.0248,-0.0212,-0.0162,-0.0144,-0.0059,-0.0044,0.0061,0.0102,0.0142,0.0205,0.0216,0.0199,0.0251,0.0252,0.0218,0.0179,0.0159,0.0152,0.0218,0.0217,0.0217,0.0177,0,-0.0443,-0.0425,-0.0391,-0.0371,-0.0353,-0.0292,-0.0267,-0.0215,-0.0159,-0.012,-0.0051,0.0003,0.0072,0.0107,0.0126,0.0191,0.0185,0.0206,0.0218,0.0218,0.0188,0.0146,0.0171,0.0135,0.0172,0.0171,0.0171,0,-0.0453,-0.0441,-0.0439,-0.0414,-0.0401,-0.038,-0.0343,-0.0306,-0.0247,-0.0207,-0.0161,-0.0094,-0.0046,0.0016,0.0069,0.0077,0.0116,0.0153,0.0153,0.015,0.0189,0.0166,0.0125,0.0163,0.0164,0.0164,0.0165,0,-0.0505,-0.0475,-0.0486,-0.0471,-0.0425,-0.0423,-0.0395,-0.034,-0.0315,-0.0263,-0.0241,-0.0183,-0.0134,-0.0091,0.0011,0.0035,0.005,0.0094,0.0098,0.0097,0.0128,0.0131,0.0098,0.0098,0.0098,0.0098,0.0098,0,-0.0535,-0.0539,-0.0511,-0.0509,-0.0515,-0.0469,-0.0468,-0.0427,-0.0384,-0.0352,-0.0287,-0.0246,-0.0157,-0.0116,-0.0043,0.0004,0.0005,0.0067,0.0079,0.0107,0.0108,0.0151,0.0157,0.0097,0.0097,0.0097,0.0097,0,-0.0578,-0.0567,-0.0566,-0.0539,-0.0537,-0.0531,-0.0504,-0.0493,-0.0451,-0.0408,-0.0393,-0.0307,-0.0246,-0.0182,-0.0105,-0.0061,-0.0015,-0.0002,0.0015,0.0028,0.0041,0.0045,-0.0016,-0.0017,-0.0018,-0.0019,-0.0019,0,-0.0601,-0.061,-0.0588,-0.0587,-0.0575,-0.057,-0.0563,-0.0525,-0.0501,-0.0424,-0.0401,-0.0346,-0.0269,-0.0206,-0.0131,-0.0075,-0.0048,-0.0041,0.0012,0.0008,0.0026,0.0032,0.0037,0.003,0.003,0.003,0.003,0,-0.0633,-0.0623,-0.061,-0.0611,-0.0608,-0.0606,-0.0587,-0.058,-0.0515,-0.047,-0.0381,-0.0324,-0.0253,-0.0167,-0.0131,-0.0084,-0.005,-0.0045,-0.0057,0.0052,0.0047,0.0066,0.0071,0.0028,0.0028,0.0028,0.0028,0.0028,-0.0642,-0.0632,-0.0616,-0.0614,-0.0619,-0.0613,-0.0594,-0.0558,-0.0509,-0.0405,-0.0377,-0.0281,-0.0243,-0.0159,-0.0093,-0.0042,-0.0057,-0.003,-0.0027,-0.0025,-0.0015,-0.0022,-0.0053,-0.0054,-0.0054,-0.0054,-0.0054,0,-0.0632,-0.0622,-0.0623,-0.0607,-0.0614,-0.0614,-0.0584,-0.055,-0.0464,-0.0385,-0.0303,-0.0245,-0.0172,-0.0117,-0.0026,0.0005,0.004,0.0014,0.0062,0.0062,0.0062,0.0079,0.0064,0.0065,0.0065,0.0066,0,0,-0.062,-0.0603,-0.0597,-0.0599,-0.0597,-0.0574,-0.0545,-0.0484,-0.0421,-0.0315,-0.0244,-0.0237,-0.0179,-0.0103,-0.0048,0.0027,0.0043,0.0039,-0.0064,-0.0014,-0.0013,0.002,0.0041,0,0,0,0,0]}],[{"header":{"parameterUnit":"m.s-1","parameterCategory":2,"la1":30.2991,"la2":30.254,"lo1":-89.0895,"lo2":-89.0444,"dy":0.0017,"dx":0.0017,"nx":28,"ny":28,"refTime":"2023-10-21T21:00:00:Z","depth":"4","parameterNumber":2,"parameterNumberName":"U-component_of_CURRENTS"},"data":[0,0,0,0,0,0,0,0,0,0,0,0,0,0,0,0,0,0,0,0,0,0,0,0,0,0,0,0,0,0,0,0,0,0,0,0,0,0,0,0,0,0,0,0,0,0,0,0,0,0,0,0,0,0,0,0,0,0,-0.0402,-0.0402,0,-0.0417,-0.0417,-0.0417,-0.042,-0.042,-0.042,-0.042,-0.0448,-0.0449,-0.0449,0,0,0,0,0,0,0,0,0,0,0,0,0,-0.0374,-0.0374,-0.0402,-0.0402,-0.0402,-0.0417,-0.0417,-0.0417,-0.042,-0.042,-0.042,-0.042,-0.0447,-0.0448,-0.045,0,0,0,0,0,0,0,0,0,0,0,0,0,-0.0387,-0.0374,-0.0402,-0.0405,-0.0406,-0.0417,-0.0417,-0.0417,-0.042,-0.042,-0.042,-0.042,-0.0447,-0.0448,-0.045,-0.0462,0,0,-0.0454,-0.0454,0,0,0,0,0,0,0,0,-0.0386,-0.0388,-0.0405,-0.0405,-0.0406,-0.0416,-0.0417,-0.0433,-0.042,-0.0415,-0.042,-0.0419,-0.0438,-0.044,-0.0444,-0.0463,-0.0464,-0.0454,-0.0455,-0.0455,-0.0456,0,0,0,0,0,0,0,-0.0385,-0.0388,-0.0408,-0.0405,-0.0406,-0.0405,-0.0407,-0.042,-0.0428,-0.0415,-0.0416,-0.0417,-0.0439,-0.0442,-0.0444,-0.0465,-0.0454,-0.0455,-0.0456,-0.0456,-0.0482,-0.0482,0,0,0,0,0,0,-0.0384,-0.0387,-0.0408,-0.0409,-0.0395,-0.0406,-0.0408,-0.0413,-0.0428,-0.0429,-0.0417,-0.0417,-0.044,-0.0443,-0.0446,-0.046,-0.0455,-0.0456,-0.0457,-0.0482,-0.0482,-0.0482,0,0,0,0,0,0,-0.0383,-0.0386,-0.0407,-0.0398,-0.04,-0.0407,-0.0413,-0.0414,-0.0419,-0.0429,-0.0431,-0.0422,-0.044,-0.0444,-0.0457,-0.0461,-0.0457,-0.0458,-0.0482,-0.0482,-0.0482,-0.049,0,0,0,0,0,0,-0.0382,-0.0385,-0.0392,-0.0398,-0.0401,-0.0414,-0.0413,-0.0414,-0.042,-0.042,-0.0434,-0.0436,-0.044,-0.0455,-0.0458,-0.0463,-0.0459,-0.0482,-0.0482,-0.0482,-0.049,-0.049,-0.049,0,0,0,0,0,-0.0381,-0.039,-0.0393,-0.0395,-0.0409,-0.0414,-0.0416,-0.0419,-0.0421,-0.0424,-0.0431,-0.0436,-0.0456,-0.0456,-0.046,-0.0465,-0.0483,-0.0482,-0.0482,-0.049,-0.049,-0.049,0,0,0,0,0,0,-0.038,-0.0392,-0.0394,-0.0406,-0.041,-0.0414,-0.042,-0.0422,-0.0431,-0.0433,-0.044,-0.0443,-0.0453,-0.0458,-0.0458,-0.047,-0.0468,-0.0468,-0.0472,-0.0472,-0.0473,-0.0471,-0.046,0,0,0,0,0,-0.0384,-0.0396,-0.04,-0.041,-0.0413,-0.0417,-0.0421,-0.0423,-0.0429,-0.0433,-0.0441,-0.0448,-0.0455,-0.0463,-0.0468,-0.0482,-0.0483,-0.0485,-0.0485,-0.0486,-0.0486,-0.05,-0.0502,-0.0481,-0.0481,-0.0481,0,0,-0.0387,-0.0394,-0.0401,-0.0411,-0.0416,-0.0419,-0.0419,-0.0426,-0.0429,-0.0436,-0.0446,-0.0451,-0.0457,-0.0467,-0.0473,-0.0474,-0.0489,-0.0485,-0.0486,-0.0485,-0.05,-0.0502,-0.0504,-0.0481,-0.0481,-0.0481,0,0,-0.0392,-0.0404,-0.0411,-0.0415,-0.0422,-0.0424,-0.0426,-0.0432,-0.0435,-0.0444,-0.0447,-0.0456,-0.0467,-0.0474,-0.0478,-0.0485,-0.0488,-0.0484,-0.049,-0.0504,-0.0506,-0.0507,-0.0501,-0.0502,-0.0487,-0.0487,-0.0487,0,-0.0393,-0.0404,-0.0413,-0.0418,-0.0422,-0.0426,-0.0429,-0.0435,-0.0443,-0.0449,-0.0446,-0.0463,-0.0469,-0.0485,-0.0483,-0.0487,-0.0487,-0.049,-0.0505,-0.0507,-0.0509,-0.0501,-0.0502,-0.0488,-0.0488,-0.0488,-0.0487,0,-0.0398,-0.0408,-0.0412,-0.0421,-0.0426,-0.0431,-0.0436,-0.0444,-0.0448,-0.0452,-0.0465,-0.0473,-0.0485,-0.0485,-0.0486,-0.0502,-0.0495,-0.0502,-0.0506,-0.0511,-0.0503,-0.0504,-0.0488,-0.0488,-0.0488,-0.0488,0,0,-0.0396,-0.0413,-0.0414,-0.042,-0.0429,-0.0434,-0.0443,-0.0453,-0.0461,-0.0468,-0.0479,-0.0488,-0.0494,-0.0499,-0.0505,-0.0514,-0.0522,-0.0513,-0.0513,-0.0509,-0.0538,-0.0453,-0.0446,-0.0535,-0.0536,-0.0536,-0.0523,0,-0.0395,-0.0406,-0.0414,-0.0424,-0.0429,-0.0439,-0.0448,-0.0459,-0.0466,-0.0477,-0.0489,-0.0498,-0.0499,-0.0505,-0.0517,-0.0521,-0.0527,-0.0524,-0.0531,-0.0531,-0.0458,-0.0445,-0.0538,-0.0524,-0.0524,-0.0525,-0.0525,0,-0.0391,-0.0402,-0.0413,-0.043,-0.0433,-0.044,-0.0458,-0.0466,-0.0483,-0.0488,-0.0503,-0.0509,-0.0524,-0.0523,-0.0539,-0.0537,-0.0537,-0.0537,-0.0537,-0.0456,-0.0447,-0.052,-0.0527,-0.0527,-0.0526,-0.0526,-0.0526,0,-0.0383,-0.0399,-0.041,-0.0415,-0.0435,-0.0445,-0.0454,-0.047,-0.0479,-0.0496,-0.0498,-0.0521,-0.0524,-0.054,-0.0534,-0.0542,-0.0541,-0.0555,-0.0477,-0.0471,-0.0552,-0.055,-0.0566,-0.0566,-0.0566,-0.0566,-0.0566,0,-0.0376,-0.0386,-0.0409,-0.0416,-0.0433,-0.0444,-0.0459,-0.0471,-0.0485,-0.0488,-0.0505,-0.0502,-0.0528,-0.0528,-0.0535,-0.0495,-0.0544,-0.0468,-0.0461,-0.0552,-0.0551,-0.0551,-0.055,-0.0565,-0.0565,-0.0566,-0.0566,0,-0.0367,-0.038,-0.0399,-0.0424,-0.0431,-0.0444,-0.0463,-0.047,-0.0481,-0.0484,-0.0487,-0.049,-0.0469,-0.0481,-0.049,-0.0475,-0.0463,-0.044,-0.0517,-0.0516,-0.0385,-0.0384,-0.0352,-0.0349,-0.0347,-0.0344,-0.0343,0,-0.0363,-0.0374,-0.0407,-0.0417,-0.043,-0.0447,-0.0455,-0.047,-0.0471,-0.0466,-0.0461,-0.044,-0.0434,-0.0379,-0.0394,-0.0382,-0.0379,-0.0375,-0.0393,-0.0366,-0.0363,-0.0366,-0.0369,-0.0338,-0.0338,-0.0337,-0.0336,0,-0.0365,-0.0382,-0.04,-0.0418,-0.0431,-0.0438,-0.0446,-0.044,-0.0443,-0.0461,-0.0414,-0.0383,-0.0343,-0.0326,-0.0304,-0.0306,-0.0381,-0.0347,-0.0353,-0.037,-0.0348,-0.0349,-0.0355,-0.0327,-0.0328,-0.0329,-0.033,0,-0.0371,-0.0385,-0.0407,-0.0417,-0.0428,-0.0412,-0.042,-0.0402,-0.0399,-0.039,-0.037,-0.0341,-0.0338,-0.0284,-0.0274,-0.0249,-0.0247,-0.0254,-0.0265,-0.0275,-0.0252,-0.0213,-0.0135,0,0,0,0,0,-0.0375,-0.0386,-0.0399,-0.0398,-0.04,-0.0397,-0.0404,-0.0407,-0.0407,-0.0362,-0.0362,-0.0319,-0.0259,-0.0246,-0.0201,-0.023,-0.0252,-0.0176,-0.0269,-0.0276,-0.0286,-0.0263,0,0,0,0,0,0,-0.0379,-0.0399,-0.0398,-0.0372,-0.0357,-0.0348,-0.0345,-0.0345,-0.0319,-0.0322,-0.0293,-0.0292,-0.0245,-0.0276,-0.0193,-0.0187,-0.0235,-0.0162,-0.0161,-0.027,-0.0279,-0.0288,-0.0268,0,0,0,0,0]},{"header":{"parameterUnit":"m.s-1","parameterCategory":2,"la1":30.2991,"la2":30.254,"lo1":-89.0895,"lo2":-89.0444,"dy":0.0017,"dx":0.0017,"nx":28,"ny":28,"refTime":"2023-10-21T21:00:00:Z","depth":"4","parameterNumber":3,"parameterNumberName":"V-component_of_CURRENTS"},"data":[0,0,0,0,0,0,0,0,0,0,0,0,0,0,0,0,0,0,0,0,0,0,0,0,0,0,0,0,0,0,0,0,0,0,0,0,0,0,0,0,0,0,0,0,0,0,0,0,0,0,0,0,0,0,0,0,0,0,-0.0244,-0.0244,0,-0.0242,-0.0242,-0.0242,-0.0246,-0.0246,-0.0246,-0.0246,-0.0248,-0.0248,-0.0248,0,0,0,0,0,0,0,0,0,0,0,0,0,-0.0265,-0.0265,-0.0244,-0.0244,-0.0244,-0.0242,-0.0242,-0.0242,-0.0246,-0.0246,-0.0246,-0.0246,-0.0248,-0.0248,-0.0248,0,0,0,0,0,0,0,0,0,0,0,0,0,-0.026,-0.0265,-0.0244,-0.0245,-0.0244,-0.0242,-0.0242,-0.0242,-0.0246,-0.0246,-0.0246,-0.0246,-0.0248,-0.0248,-0.0248,-0.0248,0,0,-0.0248,-0.0248,0,0,0,0,0,0,0,0,-0.026,-0.0259,-0.0245,-0.0245,-0.0244,-0.0243,-0.025,-0.0244,-0.0246,-0.0247,-0.0246,-0.0246,-0.0246,-0.0246,-0.0247,-0.0248,-0.0248,-0.0248,-0.0248,-0.0248,-0.0248,0,0,0,0,0,0,0,-0.0261,-0.026,-0.0245,-0.0244,-0.0244,-0.0249,-0.0248,-0.0249,-0.0247,-0.0247,-0.0247,-0.0244,-0.0246,-0.0247,-0.0247,-0.0248,-0.0248,-0.0248,-0.0248,-0.0248,-0.0274,-0.0274,0,0,0,0,0,0,-0.0257,-0.026,-0.0245,-0.0244,-0.0251,-0.0248,-0.0248,-0.0244,-0.0247,-0.0247,-0.0244,-0.0244,-0.0247,-0.0247,-0.0248,-0.0266,-0.0248,-0.0248,-0.0248,-0.0273,-0.0274,-0.0274,0,0,0,0,0,0,-0.0258,-0.0256,-0.0245,-0.0251,-0.025,-0.0248,-0.0244,-0.0244,-0.0249,-0.0245,-0.0245,-0.0249,-0.0247,-0.0247,-0.0257,-0.0265,-0.0248,-0.0248,-0.0272,-0.0273,-0.0274,-0.029,0,0,0,0,0,0,-0.0258,-0.0256,-0.0258,-0.0251,-0.0249,-0.0249,-0.0244,-0.0244,-0.0247,-0.0247,-0.0249,-0.0249,-0.0247,-0.0257,-0.0257,-0.0265,-0.0249,-0.0271,-0.0273,-0.0274,-0.0289,-0.0292,-0.0294,0,0,0,0,0,-0.0259,-0.0261,-0.0258,-0.0256,-0.025,-0.0249,-0.0249,-0.0249,-0.0247,-0.0253,-0.0256,-0.0249,-0.0265,-0.0258,-0.0258,-0.0265,-0.0271,-0.0272,-0.0274,-0.0288,-0.0291,-0.0294,0,0,0,0,0,0,-0.0274,-0.0261,-0.0258,-0.0256,-0.0255,-0.0249,-0.0253,-0.0251,-0.0258,-0.026,-0.0256,-0.0257,-0.0271,-0.0266,-0.0259,-0.0277,-0.0267,-0.0268,-0.0278,-0.0281,-0.0283,-0.0282,-0.0249,0,0,0,0,0,-0.0276,-0.0274,-0.0264,-0.0265,-0.0263,-0.0259,-0.0259,-0.0259,-0.026,-0.0263,-0.0264,-0.0268,-0.0276,-0.0277,-0.0284,-0.029,-0.0275,-0.0296,-0.0298,-0.03,-0.03,-0.0274,-0.0274,-0.0279,-0.0279,-0.0279,0,0,-0.0283,-0.0275,-0.0275,-0.0268,-0.0266,-0.0273,-0.026,-0.0263,-0.0273,-0.0262,-0.028,-0.0279,-0.0281,-0.0293,-0.0298,-0.029,-0.0295,-0.0302,-0.0304,-0.0303,-0.0276,-0.0275,-0.0274,-0.028,-0.028,-0.028,0,0,-0.0299,-0.0287,-0.0293,-0.0292,-0.0289,-0.0286,-0.0287,-0.0285,-0.0288,-0.03,-0.0299,-0.03,-0.0311,-0.0311,-0.0313,-0.0332,-0.0312,-0.0337,-0.0343,-0.0318,-0.0317,-0.0316,-0.0307,-0.0305,-0.0334,-0.0334,-0.0334,0,-0.0311,-0.0314,-0.0297,-0.0305,-0.0309,-0.0293,-0.0307,-0.0308,-0.0312,-0.0314,-0.031,-0.032,-0.0319,-0.0328,-0.0336,-0.0336,-0.0323,-0.033,-0.032,-0.0318,-0.0317,-0.0308,-0.0305,-0.0335,-0.0334,-0.0334,-0.0334,0,-0.0332,-0.0337,-0.034,-0.0345,-0.0347,-0.0355,-0.035,-0.0355,-0.0353,-0.035,-0.0357,-0.035,-0.0353,-0.0354,-0.0351,-0.0345,-0.0341,-0.0328,-0.0308,-0.0317,-0.0308,-0.0304,-0.0336,-0.0336,-0.0335,-0.0335,0,0,-0.0358,-0.0356,-0.0361,-0.0366,-0.0369,-0.037,-0.0387,-0.0391,-0.0395,-0.0392,-0.0397,-0.04,-0.0383,-0.0384,-0.0375,-0.0351,-0.0332,-0.0335,-0.0333,-0.0321,-0.0285,-0.0272,-0.0267,-0.0311,-0.0311,-0.031,-0.0287,0,-0.0385,-0.0402,-0.0399,-0.0421,-0.0427,-0.0421,-0.0434,-0.0434,-0.043,-0.043,-0.0412,-0.0415,-0.0398,-0.0397,-0.0371,-0.0347,-0.0323,-0.034,-0.0284,-0.0283,-0.0264,-0.0263,-0.0308,-0.0285,-0.0284,-0.0283,-0.0283,0,-0.0415,-0.0417,-0.0441,-0.0446,-0.045,-0.0464,-0.0471,-0.048,-0.0473,-0.0469,-0.0458,-0.0443,-0.0426,-0.0402,-0.0352,-0.0363,-0.0326,-0.0298,-0.0296,-0.0274,-0.0263,-0.0272,-0.0277,-0.0277,-0.0278,-0.0278,-0.0279,0,-0.0434,-0.0451,-0.0468,-0.0472,-0.0476,-0.049,-0.0495,-0.0493,-0.049,-0.0493,-0.0485,-0.0465,-0.0452,-0.0403,-0.0356,-0.035,-0.0294,-0.0277,-0.023,-0.023,-0.0241,-0.0242,-0.0228,-0.0228,-0.0228,-0.0228,-0.0228,0,-0.0458,-0.0475,-0.0478,-0.0484,-0.0498,-0.0503,-0.0514,-0.0518,-0.0514,-0.0504,-0.0501,-0.0486,-0.0446,-0.0412,-0.0364,-0.0295,-0.0299,-0.0231,-0.0218,-0.0252,-0.0254,-0.0239,-0.0241,-0.0228,-0.0228,-0.0228,-0.0228,0,-0.0474,-0.0481,-0.0494,-0.0502,-0.0506,-0.0514,-0.0516,-0.0518,-0.0521,-0.051,-0.0512,-0.0498,-0.0455,-0.0414,-0.0345,-0.0303,-0.0244,-0.0216,-0.0275,-0.0266,-0.0195,-0.0198,-0.0156,-0.0155,-0.0155,-0.0154,-0.0154,0,-0.0481,-0.0491,-0.0499,-0.0501,-0.0507,-0.0515,-0.0519,-0.0521,-0.0518,-0.0508,-0.0501,-0.0475,-0.0455,-0.0363,-0.0319,-0.024,-0.0218,-0.02,-0.0176,-0.0193,-0.0185,-0.0189,-0.0192,-0.0153,-0.0153,-0.0152,-0.0152,0,-0.0485,-0.0493,-0.0495,-0.05,-0.0507,-0.051,-0.0516,-0.0509,-0.0509,-0.0505,-0.0479,-0.0443,-0.0396,-0.0344,-0.0295,-0.0232,-0.0221,-0.0193,-0.0193,-0.017,-0.0189,-0.0182,-0.0186,-0.015,-0.015,-0.015,-0.0151,0,-0.0482,-0.0481,-0.0487,-0.049,-0.0504,-0.0512,-0.051,-0.0501,-0.0493,-0.0477,-0.0467,-0.043,-0.0412,-0.0338,-0.0288,-0.0236,-0.0204,-0.0182,-0.0182,-0.0184,-0.0197,-0.0225,-0.0183,0,0,0,0,0,-0.0471,-0.047,-0.0475,-0.0479,-0.05,-0.0512,-0.0513,-0.0509,-0.0499,-0.0474,-0.0467,-0.0422,-0.0347,-0.0326,-0.0266,-0.0267,-0.02,-0.0194,-0.0176,-0.0137,-0.014,-0.0148,0,0,0,0,0,0,-0.0457,-0.0464,-0.0468,-0.0482,-0.0492,-0.0512,-0.0518,-0.0511,-0.0491,-0.0475,-0.0437,-0.0406,-0.0338,-0.0383,-0.0268,-0.0253,-0.0231,-0.016,-0.0158,-0.0136,-0.0138,-0.014,-0.0149,0,0,0,0,0]}]]